Location: Holbach
(51.5399°N, 10.6036°E)
Time: 11:08:12
(UTC+00:00)

USA 234 - Pass Details

Date: 18 September 2020
Orbit: 1102 x 1106 km, 123.0° (Epoch: 16 October)

Event Time Altitude Azimuth Distance (km) Brightness Sun altitude
Rises 23:41:34 0° 87° (E) 3,920 6.3 -36.7°
Reaches altitude 10° 23:44:05 10° 83° (E) 2,963 5.6 -36.6°
Maximum altitude 23:50:27 58° 7° (N) 1,277 3.7 -36.4°
Enters shadow 23:50:38 57° 0° (N) 1,279 3.7 -36.4°
Exits shadow 23:54:28 24° 298° (WNW) 2,116 4.8 -36.3°
Drops below altitude 10° 23:56:50 10° 291° (WNW) 2,967 5.6 -36.2°
Sets 23:59:21 0° 288° (WNW) 3,926 6.2 -36.1°
